Flag for Afghanistan Weather past 2 weeks in Kabul, Afghanistan

Now
63 °F

Mild.


Feels Like: 63 °F
Forecast: 24 / 43 °F
Wind: N/A

Location: Peshawar Airport

Current Time: Feb 1, 2015 at 12:30:45 PM

Latest Report: Feb 1, 2015 at 11:30 AM


Visibility: N/A

Pressure: 30.09 "Hg

Humidity: 49%

Dew point: 43 °F

Location of KabulLocation

Historic Weather in Kabul — Graph

°F

Kabul temperature yesterday

Maximum temperature yesterday: 68 °F (at 2:30 PM)
Minimum temperature yesterday: 41 °F (at 6:30 AM)
Average temperature yesterday: 55 °F

Past Weeks' High & Low Weather Summary

 TemperatureHumidityPressure
High72 °F (Jan 17, 2:30 PM)100% (Jan 21, 5:30 PM)30.27 "Hg (Jan 21, 5:30 PM)
Low39 °F (Jan 28, 6:30 AM)27% (Jan 17, 2:30 PM)29.89 "Hg (Jan 19, 2:30 PM)
Average53 °F64%30.12 "Hg
* Reported Jan 17 11:30 AM — Feb 1 11:30 AM, Kabul, Weather by CustomWeather, © 2014

Note: Actual official high and low records may vary slightly from our data, if they occured in-between our weather recording intervals... More about our weather records

Advertising

Kabul weather history for previous 24 hours

 ConditionsComfort  
Time TempWeatherWind HumidityBarometerVisibility
11:30 AM
Feb 1
63 °FMild.N/A49%30.09 "HgN/A
10:30 AM61 °FRefreshingly cool.N/A52%30.09 "HgN/A
9:30 AM55 °FScattered clouds.No wind67%30.09 "Hg2 mi
8:30 AM54 °FPartly sunny.No wind67%30.07 "Hg2 mi
7:30 AM50 °FPartly sunny.No wind67%30.07 "Hg2 mi
6:30 AM46 °FPassing clouds.No wind71%30.04 "Hg2 mi
5:30 AM46 °FPassing clouds.No wind71%30.04 "Hg2 mi
4:30 AM48 °FPassing clouds.No wind82%30.04 "Hg2 mi
3:30 AM50 °FPassing clouds.No wind76%30.04 "Hg2 mi
2:30 AM52 °FPassing clouds.No wind72%30.04 "Hg2 mi
1:30 AM52 °FPassing clouds.No wind72%30.07 "Hg2 mi
11:30 PM
Jan 31
54 °FCool.N/A67%30.04 "HgN/A
10:30 PM54 °FCool.N/A63%30.04 "HgN/A
9:30 PM54 °FCool.N/A63%30.04 "HgN/A
8:30 PM55 °FRefreshingly cool.N/A55%30.01 "HgN/A
7:30 PM57 °FRefreshingly cool.N/A51%30.01 "HgN/A
6:30 PM57 °FRefreshingly cool.N/A59%30.01 "HgN/A
5:30 PM61 °FRefreshingly cool.N/A45%29.98 "HgN/A
4:30 PM64 °FMild.N/A37%29.98 "HgN/A
3:30 PM68 °FMild.N/A33%30.01 "HgN/A
2:30 PM68 °FMild.N/A33%30.04 "HgN/A
1:30 PM66 °FMild.N/A30%30.04 "HgN/A
12:30 PM64 °FMild.N/A32%30.07 "HgN/A
Weather by CustomWeather, © 2014

See weather overviewHow to use our weather pages